Time,TemperatureF,DewpointF,PressureIn,WindDirection,WindDirectionDegrees,WindSpeedMPH,WindSpeedGustMPH,Humidity,HourlyPrecipIn,Conditions,Clouds,dailyrainin,SoftwareType,DateUTC
2013-01-07 00:03:00,29.0,-99.9,-100.00,West,279,2.0,5.0,-999,-99.99,,,-99.99,,2013-01-07 08:03:00,
2013-01-07 00:12:00,29.0,-99.9,-100.00,West,279,2.0,5.0,-999,-99.99,,,-99.99,,2013-01-07 08:12:00,
2013-01-07 00:53:00,29.0,-99.9,-100.00,West,277,1.0,2.0,-999,-99.99,,,-99.99,,2013-01-07 08:53:00,
2013-01-07 01:03:00,29.0,-99.9,-100.00,West,277,1.0,2.0,-999,-99.99,,,-99.99,,2013-01-07 09:03:00,
2013-01-07 01:12:00,29.0,-99.9,-100.00,West,277,1.0,2.0,-999,-99.99,,,-99.99,,2013-01-07 09:12:00,
2013-01-07 02:02:00,29.0,-99.9,-100.00,WNW,302,1.0,2.0,-999,-99.99,,,-99.99,,2013-01-07 10:02:00,
2013-01-07 02:12:00,29.0,-99.9,-100.00,WNW,302,1.0,2.0,-999,-99.99,,,-99.99,,2013-01-07 10:12:00,
2013-01-07 03:02:00,29.0,-99.9,-100.00,NE,34,1.0,2.0,-999,-99.99,,,-99.99,,2013-01-07 11:02:00,
2013-01-07 03:12:00,29.0,-99.9,-100.00,NE,34,1.0,2.0,-999,-99.99,,,-99.99,,2013-01-07 11:12:00,
2013-01-07 03:53:00,29.0,-99.9,-100.00,NNW,348,1.0,2.0,-999,-99.99,,,-99.99,,2013-01-07 11:53:00,
2013-01-07 04:03:00,29.0,-99.9,-100.00,NNW,348,1.0,2.0,-999,-99.99,,,-99.99,,2013-01-07 12:03:00,
2013-01-07 04:13:00,29.0,-99.9,-100.00,NNW,348,1.0,2.0,-999,-99.99,,,-99.99,,2013-01-07 12:13:00,
2013-01-07 05:03:00,29.0,-99.9,-100.00,WNW,295,1.0,1.0,-999,-99.99,,,-99.99,,2013-01-07 13:03:00,
2013-01-07 05:12:00,29.0,-99.9,-100.00,WNW,295,1.0,1.0,-999,-99.99,,,-99.99,,2013-01-07 13:12:00,
2013-01-07 05:53:00,29.0,-99.9,-100.00,NNW,337,1.0,1.0,-999,-99.99,,,-99.99,,2013-01-07 13:53:00,
2013-01-07 06:03:00,29.0,-99.9,-100.00,NNW,337,1.0,1.0,-999,-99.99,,,-99.99,,2013-01-07 14:03:00,
2013-01-07 06:13:00,29.0,-99.9,-100.00,NNW,337,1.0,1.0,-999,-99.99,,,-99.99,,2013-01-07 14:13:00,
2013-01-07 06:53:00,29.0,-99.9,-100.00,WNW,284,1.0,1.0,-999,-99.99,,,-99.99,,2013-01-07 14:53:00,
2013-01-07 07:03:00,29.0,-99.9,-100.00,WNW,284,1.0,1.0,-999,-99.99,,,-99.99,,2013-01-07 15:03:00,
2013-01-07 07:12:00,29.0,-99.9,-100.00,WNW,284,1.0,1.0,-999,-99.99,,,-99.99,,2013-01-07 15:12:00,
2013-01-07 08:03:00,29.0,-99.9,-100.00,West,269,1.0,1.0,-999,-99.99,,,-99.99,,2013-01-07 16:03:00,
2013-01-07 08:12:00,29.0,-99.9,-100.00,West,269,1.0,1.0,-999,-99.99,,,-99.99,,2013-01-07 16:12:00,
2013-01-07 09:03:00,30.0,-99.9,-100.00,NW,314,1.0,2.0,-999,-99.99,,,-99.99,,2013-01-07 17:03:00,
2013-01-07 09:12:00,30.0,-99.9,-100.00,NW,314,1.0,2.0,-999,-99.99,,,-99.99,,2013-01-07 17:12:00,
2013-01-07 09:53:00,30.0,-99.9,-100.00,WNW,286,1.0,1.0,-999,-99.99,,,-99.99,,2013-01-07 17:53:00,
2013-01-07 10:03:00,30.0,-99.9,-100.00,WNW,286,1.0,1.0,-999,-99.99,,,-99.99,,2013-01-07 18:03:00,
2013-01-07 10:13:00,30.0,-99.9,-100.00,WNW,286,1.0,1.0,-999,-99.99,,,-99.99,,2013-01-07 18:13:00,
2013-01-07 11:03:00,31.0,-99.9,-100.00,WSW,244,3.0,5.0,-999,-99.99,,,-99.99,,2013-01-07 19:03:00,
2013-01-07 11:13:00,31.0,-99.9,-100.00,WSW,244,3.0,5.0,-999,-99.99,,,-99.99,,2013-01-07 19:13:00,
2013-01-07 12:03:00,32.0,-99.9,-100.00,NNW,340,3.0,6.0,-999,-99.99,,,-99.99,,2013-01-07 20:03:00,
2013-01-07 12:13:00,32.0,-99.9,-100.00,NNW,340,3.0,6.0,-999,-99.99,,,-99.99,,2013-01-07 20:13:00,
2013-01-07 13:03:00,34.0,-99.9,-100.00,North,10,2.0,5.0,-999,-99.99,,,-99.99,,2013-01-07 21:03:00,
2013-01-07 13:12:00,34.0,-99.9,-100.00,North,10,2.0,5.0,-999,-99.99,,,-99.99,,2013-01-07 21:12:00,
2013-01-07 14:03:00,37.0,-99.9,-100.00,ENE,67,1.0,2.0,-999,-99.99,,,-99.99,,2013-01-07 22:03:00,
2013-01-07 14:12:00,37.0,-99.9,-100.00,ENE,67,1.0,2.0,-999,-99.99,,,-99.99,,2013-01-07 22:12:00,
2013-01-07 15:03:00,38.0,-99.9,-100.00,NW,326,1.0,2.0,-999,-99.99,,,-99.99,,2013-01-07 23:03:00,
2013-01-07 15:12:00,38.0,-99.9,-100.00,NW,326,1.0,2.0,-999,-99.99,,,-99.99,,2013-01-07 23:12:00,
2013-01-07 17:03:00,30.0,-99.9,-100.00,North,9,5.0,7.0,-999,-99.99,,,-99.99,,2013-01-08 01:03:00,
2013-01-07 17:12:00,30.0,-99.9,-100.00,North,9,5.0,7.0,-999,-99.99,,,-99.99,,2013-01-08 01:12:00,
2013-01-07 18:53:00,27.0,-99.9,-100.00,NNW,345,3.0,6.0,-999,-99.99,,,-99.99,,2013-01-08 02:53:00,
2013-01-07 19:03:00,27.0,-99.9,-100.00,NNW,345,3.0,6.0,-999,-99.99,,,-99.99,,2013-01-08 03:03:00,
2013-01-07 19:12:00,27.0,-99.9,-100.00,NNW,345,3.0,6.0,-999,-99.99,,,-99.99,,2013-01-08 03:12:00,
2013-01-07 20:02:00,28.0,-99.9,-100.00,WNW,300,2.0,3.0,-999,-99.99,,,-99.99,,2013-01-08 04:02:00,
2013-01-07 20:12:00,28.0,-99.9,-100.00,WNW,300,2.0,3.0,-999,-99.99,,,-99.99,,2013-01-08 04:12:00,
2013-01-07 21:04:00,26.0,-99.9,-100.00,WSW,249,3.0,7.0,-999,-99.99,,,-99.99,,2013-01-08 05:04:00,
2013-01-07 21:12:00,26.0,-99.9,-100.00,WSW,249,3.0,7.0,-999,-99.99,,,-99.99,,2013-01-08 05:12:00,
2013-01-07 22:03:00,28.0,-99.9,-100.00,North,6,6.0,12.0,-999,-99.99,,,-99.99,,2013-01-08 06:03:00,
2013-01-07 22:12:00,28.0,-99.9,-100.00,North,6,6.0,12.0,-999,-99.99,,,-99.99,,2013-01-08 06:12:00,
2013-01-07 23:02:00,30.0,-99.9,-100.00,SSW,210,5.0,10.0,-999,-99.99,,,-99.99,,2013-01-08 07:02:00,
2013-01-07 23:12:00,30.0,-99.9,-100.00,SSW,210,5.0,10.0,-999,-99.99,,,-99.99,,2013-01-08 07:12:00,
2013-01-07 23:53:00,39.0,-99.9,-100.00,West,274,5.0,7.0,-999,-99.99,,,-99.99,,2013-01-08 07:53:00,